Location: �perlecques
(50.8057°N, 2.1521°E)
Time: 13:55:44
(UTC+00:00)

Cosmos 1328 - Pass Details

Date: 09 April 2020
Orbit: 540 x 544 km, 82.5° (Epoch: 25 May)

Event Time Altitude Azimuth Distance (km) Brightness Sun altitude
Rises 19:04:37 0° 351° (N) 2,724 7.8 -4.9°
Reaches altitude 10° 19:06:48 10° 354° (N) 1,826 6.8 -5.2°
Maximum altitude 19:10:48 70° 78° (ENE) 586 3.8 -5.8°
Drops below altitude 10° 19:14:47 10° 163° (SSE) 1,811 6.1 -6.4°
Sets 19:16:56 0° 165° (SSE) 2,698 7.0 -6.7°
